| time (UTC) | temp F | wind direction | speed MPH | gust MPH | rain 1hr in | rain 24hr in | rain mn in | humidity % | barometer mb |
| 20260507191145 | 0 | 0 | 2.0 | 8.0 | 0.00 | 0.00 | 0.00 | 1012.8 | |
| 20260507190243 | 0 | 0 | 1.0 | 7.0 | 0.00 | 0.00 | 0.00 | 1012.7 | |
| 20260507185345 | 0 | 45 | 3.0 | 5.0 | 0.00 | 0.00 | 0.00 | 1012.5 | |
| 20260507184458 | 0 | 0 | 1.0 | 3.0 | 0.00 | 0.00 | 0.00 | 1012.3 | |
| 20260507183555 | 0 | 0 | 0.0 | 3.0 | 0.00 | 0.00 | 0.00 | 1012.0 | |
| 20260507182702 | 0 | 0 | 2.0 | 3.0 | 0.00 | 0.00 | 0.00 | 1011.9 | |
| 20260507181806 | 0 | 0 | 0.0 | 4.0 | 0.00 | 0.00 | 0.00 | 1011.6 | |
| 20260507180906 | 0 | 0 | 2.0 | 6.0 | 0.00 | 0.00 | 0.00 | 1011.2 | |
| 20260507180011 | 0 | 45 | 3.0 | 5.0 | 0.00 | 0.00 | 0.00 | 1011.1 | |
| 20260507175118 | 0 | 0 | 3.0 | 9.0 | 0.00 | 0.00 | 0.00 | 1011.0 | |
| 20260507174221 | 0 | 0 | 4.0 | 6.0 | 0.00 | 0.00 | 0.00 | 1010.9 | |
| 20260507173328 | 0 | 0 | 3.0 | 5.0 | 0.00 | 0.00 | 0.00 | 1010.7 | |
| 20260507172431 | 0 | 0 | 4.0 | 7.0 | 0.00 | 0.00 | 0.00 | 1010.6 | |
| 20260507171536 | 0 | 0 | 5.0 | 7.0 | 0.00 | 0.00 | 0.00 | 1010.5 | |
| 20260507170643 | 0 | 270 | 2.0 | 8.0 | 0.00 | 0.00 | 0.00 | 1010.4 | |
| 20260507165749 | 0 | 0 | 5.0 | 8.0 | 0.00 | 0.00 | 0.00 | 1010.4 | |
| 20260507164854 | 0 | 0 | 3.0 | 13.0 | 0.00 | 0.00 | 0.00 | 1010.3 | |
| 20260507164000 | 0 | 45 | 8.0 | 11.0 | 0.00 | 0.00 | 0.00 | 1010.2 | |
| 20260507163106 | 0 | 0 | 3.0 | 12.0 | 0.00 | 0.00 | 0.00 | 1010.0 | |
| 20260507162209 | 0 | 0 | 5.0 | 14.0 | 0.00 | 0.00 | 0.00 | 1010.1 | |
| 20260507161311 | 0 | 0 | 5.0 | 11.0 | 0.00 | 0.00 | 0.00 | 1010.0 | |
| 20260507160419 | 0 | 0 | 3.0 | 11.0 | 0.00 | 0.00 | 0.00 | 1010.0 | |
| 20260507155525 | 0 | 0 | 3.0 | 9.0 | 0.00 | 0.00 | 0.00 | 1009.8 | |
| 20260507154629 | 0 | 0 | 5.0 | 12.0 | 0.00 | 0.00 | 0.00 | 1009.9 | |
| 20260507153736 | 0 | 0 | 5.0 | 10.0 | 0.00 | 0.00 | 0.00 | 1009.8 | |
| 20260507152841 | 0 | 0 | 5.0 | 15.0 | 0.00 | 0.00 | 0.00 | 1009.7 | |
| 20260507151947 | 0 | 0 | 6.0 | 14.0 | 0.00 | 0.00 | 0.00 | 1009.6 | |
| 20260507151053 | 0 | 225 | 2.0 | 13.0 | 0.00 | 0.00 | 0.00 | 1009.4 | |
| 20260507150157 | 0 | 0 | 4.0 | 11.0 | 0.00 | 0.00 | 0.00 | 1009.2 | |
| 20260507145307 | 0 | 270 | 5.0 | 8.0 | 0.00 | 0.00 | 0.00 | 1009.2 | |
| 20260507144411 | 0 | 45 | 5.0 | 8.0 | 0.00 | 0.00 | 0.00 | 1009.5 | |
| 20260507143516 | 0 | 45 | 3.0 | 12.0 | 0.00 | 0.00 | 0.00 | 1009.8 | |
| 20260507142620 | 0 | 45 | 6.0 | 10.0 | 0.00 | 0.00 | 0.00 | 1009.8 | |
| 20260507141724 | 0 | 0 | 4.0 | 9.0 | 0.00 | 0.00 | 0.00 | 1009.8 | |
| 20260507140832 | 0 | 0 | 3.0 | 12.0 | 0.00 | 0.00 | 0.00 | 1009.7 | |
| 20260507135936 | 0 | 0 | 10.0 | 13.0 | 0.00 | 0.00 | 0.00 | 1009.8 | |
| 20260507135041 | 0 | 0 | 7.0 | 14.0 | 0.00 | 0.00 | 0.00 | 1009.5 | |
| 20260507134146 | 0 | 0 | 8.0 | 13.0 | 0.00 | 0.00 | 0.00 | 1009.3 | |
| 20260507133250 | 0 | 248 | 6.0 | 15.0 | 0.00 | 0.00 | 0.00 | 1009.4 | |
| 20260507132349 | 0 | 315 | 5.0 | 13.0 | 0.00 | 0.00 | 0.00 | 1009.5 | |
| 20260507131446 | 0 | 0 | 2.0 | 13.0 | 0.00 | 0.00 | 0.00 | 1009.5 | |
| 20260507130549 | 0 | 0 | 3.0 | 12.0 | 0.00 | 0.00 | 0.00 | 1009.2 | |
| 20260507125655 | 0 | 0 | 4.0 | 10.0 | 0.00 | 0.00 | 0.00 | 1009.0 | |
| 20260507124800 | 0 | 0 | 6.0 | 13.0 | 0.00 | 0.00 | 0.00 | 1009.2 | |
| 20260507123907 | 0 | 0 | 10.0 | 12.0 | 0.00 | 0.00 | 0.00 | 1009.6 | |
| 20260507123010 | 0 | 0 | 4.0 | 12.0 | 0.00 | 0.00 | 0.00 | 1009.5 | |
| 20260507122112 | 0 | 0 | 1.0 | 14.0 | 0.00 | 0.00 | 0.00 | 1009.3 | |
| 20260507121217 | 0 | 90 | 6.0 | 10.0 | 0.00 | 0.00 | 0.00 | 1009.3 | |
| 20260507120321 | 0 | 270 | 4.0 | 14.0 | 0.00 | 0.00 | 0.00 | 1009.6 | |
| 20260507115423 | 0 | 0 | 3.0 | 15.0 | 0.00 | 0.00 | 0.00 | 1009.6 | |
| 20260507114527 | 0 | 270 | 15.0 | 17.0 | 0.00 | 0.00 | 0.00 | 1009.5 | |
| 20260507113631 | 0 | 270 | 3.0 | 12.0 | 0.00 | 0.00 | 0.00 | 1009.5 | |
| 20260507112738 | 0 | 0 | 6.0 | 11.0 | 0.00 | 0.00 | 0.00 | 1009.5 | |
| 20260507111841 | 0 | 0 | 5.0 | 15.0 | 0.00 | 0.00 | 0.00 | 1009.4 | |
| 20260507110945 | 0 | 225 | 6.0 | 18.0 | 0.00 | 0.00 | 0.00 | 1009.6 | |
| 20260507110051 | 0 | 270 | 9.0 | 16.0 | 0.00 | 0.00 | 0.00 | 1009.5 | |
| 20260507105156 | 0 | 90 | 5.0 | 14.0 | 0.00 | 0.00 | 0.00 | 1009.3 | |
| 20260507104300 | 0 | 0 | 3.0 | 12.0 | 0.00 | 0.00 | 0.00 | 1009.3 | |
| 20260507103407 | 0 | 0 | 7.0 | 16.0 | 0.00 | 0.00 | 0.00 | 1009.3 | |
| 20260507102512 | 0 | 0 | 3.0 | 10.0 | 0.00 | 0.00 | 0.00 | 1009.4 | |
| 20260507101620 | 0 | 0 | 5.0 | 13.0 | 0.00 | 0.00 | 0.00 | 1009.5 | |
| 20260507100723 | 0 | 0 | 5.0 | 10.0 | 0.00 | 0.00 | 0.00 | 1009.4 | |
| 20260507095827 | 0 | 270 | 3.0 | 13.0 | 0.00 | 0.00 | 0.00 | 1009.5 | |
| 20260507094933 | 0 | 0 | 3.0 | 8.0 | 0.00 | 0.00 | 0.00 | 1009.4 | |
| 20260507094033 | 0 | 225 | 2.0 | 12.0 | 0.00 | 0.00 | 0.00 | 1009.7 | |
| 20260507093141 | 0 | 225 | 5.0 | 19.0 | 0.00 | 0.00 | 0.00 | 1009.6 | |
| 20260507092245 | 0 | 270 | 4.0 | 13.0 | 0.00 | 0.00 | 0.00 | 1009.5 | |
| 20260507091350 | 0 | 0 | 3.0 | 15.0 | 0.00 | 0.00 | 0.00 | 1009.2 | |
| 20260507090455 | 0 | 0 | 5.0 | 11.0 | 0.00 | 0.00 | 0.00 | 1009.2 | |
| 20260507085603 | 0 | 0 | 7.0 | 10.0 | 0.00 | 0.00 | 0.00 | 1009.4 | |
| 20260507084708 | 0 | 0 | 3.0 | 9.0 | 0.00 | 0.00 | 0.00 | 1009.3 | |
| 20260507083812 | 0 | 270 | 3.0 | 9.0 | 0.00 | 0.00 | 0.00 | 1009.5 | |
| 20260507082919 | 0 | 0 | 7.0 | 10.0 | 0.00 | 0.00 | 0.00 | 1009.5 | |
| 20260507082022 | 0 | 0 | 5.0 | 11.0 | 0.00 | 0.00 | 0.00 | 1009.4 | |
| 20260507081122 | 0 | 0 | 9.0 | 14.0 | 0.00 | 0.00 | 0.00 | 1009.4 | |
| 20260507080231 | 0 | 0 | 4.0 | 10.0 | 0.00 | 0.00 | 0.00 | 1009.4 | |
| 20260507075335 | 0 | 270 | 5.0 | 10.0 | 0.00 | 0.00 | 0.00 | 1009.4 | |
| 20260507074438 | 0 | 270 | 6.0 | 15.0 | 0.00 | 0.00 | 0.00 | 1009.4 | |
| 20260507073543 | 0 | 270 | 5.0 | 11.0 | 0.00 | 0.00 | 0.00 | 1009.5 | |
| 20260507072645 | 0 | 248 | 3.0 | 13.0 | 0.00 | 0.00 | 0.00 | 1009.5 | |
| 20260507071750 | 0 | 0 | 5.0 | 12.0 | 0.00 | 0.00 | 0.00 | 1009.4 | |
| 20260507070855 | 0 | 0 | 4.0 | 9.0 | 0.00 | 0.00 | 0.00 | 1009.2 | |
| 20260507070000 | 0 | 0 | 9.0 | 15.0 | 0.00 | 0.00 | 0.00 | 1009.3 | |
| 20260507065106 | 0 | 225 | 4.0 | 10.0 | 0.00 | 0.00 | 0.00 | 1009.3 | |
| 20260507064212 | 0 | 225 | 5.0 | 12.0 | 0.00 | 0.00 | 0.00 | 1009.2 | |
| 20260507063317 | 0 | 270 | 3.0 | 14.0 | 0.00 | 0.00 | 0.00 | 1009.1 | |
| 20260507062421 | 0 | 270 | 11.0 | 15.0 | 0.00 | 0.00 | 0.00 | 1008.9 | |
| 20260507060632 | 0 | 0 | 1.0 | 7.0 | 0.00 | 0.00 | 0.00 | 1008.8 | |
| 20260507055736 | 0 | 0 | 4.0 | 11.0 | 0.00 | 0.00 | 0.00 | 1008.9 | |
| 20260507054838 | 0 | 0 | 1.0 | 11.0 | 0.00 | 0.00 | 0.00 | 1008.8 | |
| 20260507053943 | 0 | 0 | 6.0 | 8.0 | 0.00 | 0.00 | 0.00 | 1008.7 | |
| 20260507053049 | 0 | 0 | 4.0 | 7.0 | 0.00 | 0.00 | 0.00 | 1008.5 | |
| 20260507052155 | 0 | 0 | 6.0 | 10.0 | 0.00 | 0.00 | 0.00 | 1008.6 | |
| 20260507051300 | 0 | 315 | 7.0 | 13.0 | 0.00 | 0.00 | 0.00 | 1008.5 | |
| 20260507050403 | 0 | 45 | 4.0 | 11.0 | 0.00 | 0.00 | 0.00 | 1008.3 | |
| 20260507045511 | 0 | 0 | 3.0 | 10.0 | 0.00 | 0.00 | 0.00 | 1008.3 | |
| 20260507044615 | 0 | 0 | 2.0 | 13.0 | 0.00 | 0.00 | 0.00 | 1008.2 | |
| 20260507043721 | 0 | 0 | 12.0 | 13.0 | 0.00 | 0.00 | 0.00 | 1008.0 | |
| 20260507042827 | 0 | 45 | 6.0 | 8.0 | 0.00 | 0.00 | 0.00 | 1007.9 | |
| 20260507041932 | 0 | 270 | 5.0 | 7.0 | 0.00 | 0.00 | 0.00 | 1007.9 | |
| 20260507041038 | 0 | 315 | 4.0 | 7.0 | 0.00 | 0.00 | 0.00 | 1007.8 | |
| 20260507040143 | 0 | 90 | 2.0 | 4.0 | 0.00 | 0.00 | 0.00 | 1008.0 | |
| 20260507035250 | 0 | 225 | 1.0 | 5.0 | 0.00 | 0.00 | 0.00 | 1008.0 | |
| 20260507034356 | 0 | 90 | 2.0 | 3.0 | 0.00 | 0.00 | 0.00 | 1008.0 | |
| 20260507033457 | 0 | 338 | 1.0 | 2.0 | 0.00 | 0.00 | 0.00 | 1008.0 | |
| 20260507032554 | 0 | 0 | 0.0 | 0.0 | 0.00 | 0.00 | 0.00 | 1008.0 | |
| 20260507031701 | 0 | 0 | 1.0 | 2.0 | 0.00 | 0.00 | 0.00 | 1008.2 | |
| 20260507030807 | 0 | 0 | 0.0 | 2.0 | 0.00 | 0.00 | 0.00 | 1007.9 | |
| 20260507025909 | 0 | 45 | 1.0 | 2.0 | 0.00 | 0.00 | 0.00 | 1007.7 | |
| 20260507025015 | 0 | 45 | 2.0 | 4.0 | 0.00 | 0.00 | 0.00 | 1007.5 | |
| 20260507024119 | 0 | 45 | 3.0 | 5.0 | 0.00 | 0.00 | 0.00 | 1007.5 | |
| 20260507023225 | 0 | 0 | 4.0 | 4.0 | 0.00 | 0.00 | 0.00 | 1007.6 | |
| 20260507022329 | 0 | 0 | 1.0 | 3.0 | 0.00 | 0.00 | 0.00 | 1007.5 | |
| 20260507021417 | 0 | 315 | 0.0 | 1.0 | 0.00 | 0.00 | 0.00 | 1007.3 | |
| 20260507020509 | 0 | 0 | 0.0 | 3.0 | 0.00 | 0.00 | 0.00 | 1007.1 | |
| 20260507015611 | 0 | 0 | 0.0 | 2.0 | 0.00 | 0.01 | 0.00 | 1007.0 | |
| 20260507014711 | 0 | 0 | 0.0 | 0.0 | 0.00 | 0.01 | 0.00 | 1007.1 | |
| 20260507013816 | 0 | 0 | 0.0 | 3.0 | 0.00 | 0.01 | 0.00 | 1006.9 | |
| 20260507012028 | 0 | 0 | 2.0 | 3.0 | 0.00 | 0.01 | 0.00 | 1006.7 | |
| 20260507011133 | 0 | 0 | 1.0 | 5.0 | 0.00 | 0.01 | 0.00 | 1006.8 | |
| 20260507010238 | 0 | 315 | 2.0 | 4.0 | 0.00 | 0.01 | 0.00 | 1006.8 | |
| 20260507005345 | 0 | 0 | 2.0 | 3.0 | 0.00 | 0.01 | 0.00 | 1006.6 | |
| 20260507004451 | 0 | 0 | 3.0 | 6.0 | 0.00 | 0.01 | 0.00 | 1006.6 | |
| 20260507003556 | 0 | 315 | 3.0 | 6.0 | 0.00 | 0.01 | 0.00 | 1006.4 | |
| 20260507002701 | 0 | 0 | 6.0 | 7.0 | 0.00 | 0.01 | 0.00 | 1006.3 | |
| 20260507001804 | 0 | 0 | 3.0 | 5.0 | 0.00 | 0.01 | 0.00 | 1006.0 | |
| 20260507000905 | 0 | 0 | 2.0 | 5.0 | 0.00 | 0.01 | 0.00 | 1005.9 | |
| 20260507000011 | 0 | 0 | 3.0 | 4.0 | 0.00 | 0.01 | 0.00 | 1005.8 | |
| 20260506235118 | 0 | 0 | 4.0 | 4.0 | 0.00 | 0.01 | 0.00 | 1005.7 | |
| 20260506234224 | 0 | 0 | 2.0 | 6.0 | 0.00 | 0.01 | 0.00 | 1005.6 | |
| 20260506233330 | 0 | 45 | 4.0 | 7.0 | 0.00 | 0.01 | 0.00 | 1005.5 | |
| 20260506232435 | 0 | 0 | 7.0 | 7.0 | 0.00 | 0.01 | 0.00 | 1005.5 | |
| 20260506231542 | 0 | 0 | 2.0 | 11.0 | 0.00 | 0.01 | 0.00 | 1005.6 | |
| 20260506230645 | 0 | 0 | 3.0 | 11.0 | 0.00 | 0.01 | 0.00 | 1005.6 | |
| 20260506225747 | 0 | 0 | 4.0 | 7.0 | 0.00 | 0.01 | 0.00 | 1005.5 | |
| 20260506224852 | 0 | 0 | 3.0 | 9.0 | 0.00 | 0.01 | 0.00 | 1005.3 | |
| 20260506223957 | 0 | 0 | 4.0 | 12.0 | 0.00 | 0.01 | 0.00 | 1005.3 | |
| 20260506223102 | 0 | 0 | 4.0 | 14.0 | 0.00 | 0.01 | 0.00 | 1005.3 | |
| 20260506222209 | 0 | 0 | 8.0 | 17.0 | 0.00 | 0.01 | 0.00 | 1005.3 | |
| 20260506221315 | 0 | 0 | 8.0 | 15.0 | 0.00 | 0.01 | 0.00 | 1004.8 | |
| 20260506220422 | 0 | 45 | 7.0 | 7.0 | 0.00 | 0.01 | 0.00 | 1004.4 | |
| 20260506215526 | 0 | 270 | 0.0 | 2.0 | 0.00 | 0.01 | 0.01 | 1004.4 | |
| 20260506214630 | 0 | 270 | 1.0 | 1.0 | 0.00 | 0.01 | 0.01 | 1004.2 | |
| 20260506213735 | 0 | 270 | 0.0 | 1.0 | 0.00 | 0.01 | 0.01 | 1004.1 | |
| 20260506212842 | 0 | 270 | 0.0 | 2.0 | 0.00 | 0.01 | 0.01 | 1004.0 | |
| 20260506211948 | 0 | 270 | 2.0 | 3.0 | 0.00 | 0.01 | 0.01 | 1004.0 | |
| 20260506211052 | 0 | 315 | 2.0 | 2.0 | 0.00 | 0.01 | 0.01 | 1004.1 | |
| 20260506210159 | 0 | 315 | 0.0 | 0.0 | 0.00 | 0.01 | 0.01 | 1004.0 | |
| 20260506205300 | 0 | 315 | 1.0 | 1.0 | 0.00 | 0.01 | 0.01 | 1004.0 | |
| 20260506204404 | 0 | 315 | 0.0 | 1.0 | 0.00 | 0.01 | 0.01 | 1004.0 | |
| 20260506203509 | 0 | 315 | 0.0 | 3.0 | 0.00 | 0.01 | 0.01 | 1003.9 | |
| 20260506202614 | 0 | 315 | 0.0 | 3.0 | 0.00 | 0.01 | 0.01 | 1003.9 | |
| 20260506201721 | 0 | 0 | 0.0 | 0.0 | 0.00 | 0.01 | 0.01 | 1004.0 | |
| 20260506200824 | 0 | 0 | 0.0 | 1.0 | 0.00 | 0.01 | 0.01 | 1004.0 | |
| 20260506195931 | 0 | 0 | 1.0 | 1.0 | 0.00 | 0.01 | 0.01 | 1004.1 | |
| 20260506195036 | 0 | 0 | 0.0 | 3.0 | 0.00 | 0.01 | 0.01 | 1004.0 | |
| 20260506194138 | 0 | 0 | 3.0 | 3.0 | 0.00 | 0.01 | 0.01 | 1003.9 | |
| 20260506193237 | 0 | 0 | 0.0 | 4.0 | 0.00 | 0.01 | 0.01 | 1003.8 | |
| 20260506192330 | 0 | 0 | 4.0 | 6.0 | 0.00 | 0.01 | 0.01 | 1003.8 |